QPF
0.00 0.00 0.00 0.00 0.00 0.00 0.00 0.01 0.00 0.00 0.00 0.00 0.00 0.00 0.00 0.00 0.00 0.00 0.00 0.00 0.00 0.00 0.00 0.00 0.00 0.00 0.00 0.00 0.00 0.00 0.00 0.00 0.00 0.00 0.00 0.00 0.00 0.00 0.00 0.00 0.00 0.00 0.00 0.00 0.00 0.00 0.00 0.00 0.00
0.00 0.00 0.00 0.01 0.00 0.00 0.00 0.00 0.00 0.02 0.02 0.01 0.00 0.00 0.00 0.00 0.00 0.00 0.00 0.00 0.00 0.00 0.00 0.00 0.00 0.00 0.00 0.00 0.00 0.00 0.00 0.00 0.00 0.00 0.00 0.00 0.00 0.01 0.00 0.00 0.00 0.00 0.00 0.00 0.00 0.00 0.00 0.00 0.00
0.02 0.05 0.06 0.03 0.00 0.00 0.00 0.00 0.00 0.00 0.01 0.00 0.00 0.00 0.00 0.00 0.00 0.00 0.00 0.00 0.00 0.00 0.00 0.00 0.00 0.00 0.00 0.00 0.00 0.00 0.00 0.00 0.00 0.00 0.00 0.00 0.01 0.01 0.00 0.00 0.00 0.00 0.00 0.00 0.00 0.00 0.00 0.00 0.00
0.01 0.08 0.07 0.02 0.00 0.00 0.00 0.00 0.00 0.00 0.00 0.00 0.00 0.00 0.00 0.00 0.00 0.00 0.00 0.00 0.00 0.00 0.00 0.00 0.00 0.00 0.00 0.00 0.00 0.00 0.00 0.00 0.00 0.00 0.00 0.00 0.00 0.00 0.00 0.00 0.00 0.00 0.00 0.00 0.00 0.00 0.01 0.00 0.00
0.00 0.01 0.00 0.00 0.00 0.00 0.00 0.00 0.00 0.00 0.00 0.00 0.00 0.00 0.00 0.00 0.00 0.00 0.00 0.00 0.00 0.00 0.00 0.00 0.00 0.00 0.00 0.00 0.00 0.00 0.00 0.00 0.00 0.00 0.00 0.00 0.00 0.00 0.00 0.00 0.00 0.00 0.00 0.00 0.00 0.01 0.07 0.00 0.00
0.00 0.00 0.00 0.00 0.00 0.00 0.00 0.00 0.00 0.00 0.00 0.00 0.00 0.00 0.00 0.00 0.00 0.00 0.00 0.00 0.00 0.00 0.00 0.00 0.00 0.00 0.00 0.00 0.00 0.00 0.00 0.00 0.00 0.00 0.00 0.00 0.00 0.00 0.00 0.00 0.00 0.00 0.00 0.00 0.00 0.01 0.06 0.01 0.00
0.00 0.00 0.00 0.00 0.00 0.00 0.00 0.00 0.00 0.00 0.00 0.00 0.00 0.00 0.00 0.00 0.00 0.00 0.00 0.00 0.00 0.00 0.00 0.00 0.00 0.00 0.00 0.00 0.00 0.00 0.00 0.00 0.00 0.00 0.00 0.00 0.00 0.00 0.00 0.00 0.00 0.00 0.00 0.00 0.00 0.00 0.01 0.01 0.00
0.00 0.00 0.00 0.00 0.00 0.00 0.00 0.00 0.00 0.00 0.00 0.00 0.00 0.00 0.00 0.00 0.00 0.00 0.00 0.00 0.00 0.00 0.00 0.00 0.00 0.00 0.00 0.00 0.00 0.00 0.00 0.00 0.00 0.00 0.00 0.00 0.00 0.00 0.00 0.00 0.00 0.00 0.00 0.00 0.00 0.00 0.00 0.00 0.00
0.00 0.00 0.00 0.00 0.00 0.00 0.00 0.00 0.00 0.00 0.00 0.00 0.00 0.00 0.00 0.00 0.00 0.00 0.00 0.00 0.00 0.00 0.00 0.00 0.00 0.00 0.00 0.00 0.00 0.00 0.00 0.00 0.00 0.00 0.00 0.00 0.00 0.00 0.00 0.00 0.00 0.00 0.00 0.00 0.00 0.00 0.03 0.04 0.04
0.00 0.00 0.00 0.00 0.00 0.00 0.00 0.00 0.00 0.00 0.00 0.00 0.00 0.00 0.00 0.00 0.00 0.00 0.00 0.00 0.00 0.00 0.00 0.00 0.00 0.00 0.00 0.00 0.00 0.00 0.00 0.00 0.00 0.00 0.00 0.00 0.00 0.00 0.00 0.00 0.00 0.00 0.00 0.00 0.00 0.02 0.11 0.05 0.02
0.00 0.00 0.00 0.00 0.00 0.00 0.00 0.00 0.00 0.00 0.00 0.00 0.00 0.00 0.00 0.00 0.00 0.00 0.00 0.00 0.00 0.00 0.00 0.00 0.00 0.00 0.00 0.00 0.00 0.00 0.00 0.00 0.00 0.00 0.00 0.00 0.00 0.00 0.00 0.00 0.00 0.00 0.00 0.01 0.01 0.07 0.06 0.03 0.01
0.00 0.00 0.00 0.00 0.00 0.00 0.00 0.00 0.00 0.00 0.00 0.00 0.00 0.00 0.00 0.00 0.00 0.00 0.00 0.00 0.00 0.00 0.00 0.00 0.00 0.00 0.00 0.00 0.00 0.00 0.00 0.00 0.00 0.00 0.00 0.00 0.00 0.00 0.00 0.00 0.00 0.00 0.00 0.02 0.07 0.07 0.00 0.00 0.04
0.00 0.00 0.00 0.00 0.00 0.00 0.00 0.00 0.00 0.00 0.00 0.00 0.00 0.00 0.00 0.00 0.00 0.00 0.00 0.00 0.00 0.00 0.00 0.00 0.00 0.00 0.00 0.00 0.00 0.00 0.00 0.00 0.00 0.00 0.00 0.00 0.00 0.00 0.00 0.00 0.00 0.00 0.00 0.00 0.03 0.02 0.01 0.00 0.00
0.00 0.00 0.00 0.00 0.00 0.00 0.00 0.01 0.00 0.00 0.00 0.00 0.00 0.00 0.00 0.00 0.00 0.00 0.00 0.00 0.00 0.00 0.00 0.00 0.00 0.00 0.00 0.00 0.00 0.00 0.00 0.00 0.00 0.00 0.00 0.00 0.00 0.00 0.00 0.00 0.00 0.00 0.00 0.00 0.02 0.01 0.01 0.00 0.00
0.00 0.00 0.00 0.00 0.00 0.00 0.01 0.01 0.00 0.00 0.00 0.00 0.00 0.00 0.00 0.00 0.00 0.00 0.00 0.00 0.00 0.00 0.00 0.00 0.00 0.00 0.00 0.00 0.00 0.00 0.00 0.00 0.00 0.00 0.00 0.00 0.00 0.00 0.00 0.00 0.00 0.00 0.00 0.00 0.00 0.00 0.00 0.01 0.02
0.00 0.00 0.00 0.00 0.00 0.00 0.00 0.00 0.00 0.00 0.00 0.00 0.00 0.00 0.00 0.00 0.00 0.00 0.00 0.00 0.00 0.00 0.00 0.00 0.00 0.00 0.00 0.00 0.00 0.00 0.00 0.00 0.00 0.00 0.00 0.00 0.00 0.00 0.00 0.00 0.00 0.00 0.00 0.00 0.00 0.04 0.00 0.02 0.03
0.00 0.00 0.00 0.00 0.00 0.00 0.00 0.00 0.00 0.00 0.00 0.00 0.00 0.00 0.00 0.00 0.00 0.00 0.00 0.00 0.00 0.00 0.00 0.00 0.00 0.00 0.00 0.00 0.00 0.00 0.00 0.00 0.00 0.00 0.00 0.00 0.00 0.00 0.00 0.00 0.00 0.00 0.00 0.00 0.00 0.01 0.00 0.01 0.02
0.00 0.00 0.00 0.00 0.00 0.00 0.00 0.00 0.00 0.00 0.00 0.00 0.00 0.00 0.00 0.00 0.00 0.00 0.00 0.00 0.00 0.00 0.00 0.00 0.00 0.00 0.00 0.00 0.00 0.00 0.00 0.00 0.00 0.00 0.00 0.00 0.00 0.00 0.00 0.00 0.00 0.00 0.00 0.00 0.00 0.00 0.00 0.01 0.02
0.00 0.00 0.00 0.00 0.00 0.00 0.00 0.00 0.00 0.00 0.00 0.00 0.00 0.00 0.00 0.00 0.00 0.00 0.00 0.00 0.00 0.00 0.00 0.00 0.00 0.00 0.00 0.00 0.00 0.00 0.00 0.00 0.00 0.00 0.00 0.00 0.00 0.00 0.00 0.00 0.00 0.00 0.00 0.00 0.00 0.00 0.00 0.00 0.00
0.00 0.00 0.00 0.00 0.00 0.00 0.00 0.00 0.00 0.00 0.00 0.00 0.00 0.00 0.00 0.00 0.00 0.00 0.00 0.00 0.00 0.00 0.00 0.00 0.00 0.00 0.00 0.00 0.00 0.00 0.00 0.00 0.00 0.00 0.00 0.00 0.00 0.00 0.00 0.00 0.00 0.00 0.00 0.00 0.00 0.00 0.00 0.00 0.00
0.00 0.00 0.00 0.00 0.00 0.00 0.00 0.00 0.00 0.00 0.00 0.00 0.00 0.00 0.00 0.00 0.00 0.00 0.00 0.00 0.00 0.00 0.00 0.00 0.00 0.00 0.00 0.00 0.00 0.00 0.00 0.00 0.00 0.00 0.00 0.00 0.00 0.00 0.00 0.00 0.00 0.00 0.01 0.01 0.01 0.00 0.00 0.00 0.01
0.00 0.00 0.00 0.00 0.00 0.00 0.00 0.00 0.00 0.00 0.00 0.00 0.00 0.00 0.00 0.00 0.00 0.00 0.00 0.00 0.00 0.00 0.00 0.00 0.00 0.00 0.00 0.00 0.00 0.00 0.00 0.00 0.00 0.00 0.00 0.00 0.00 0.00 0.00 0.01 0.02 0.02 0.02 0.02 0.02 0.02 0.01 0.01 0.00
0.00 0.00 0.00 0.00 0.00 0.00 0.00 0.00 0.00 0.00 0.00 0.00 0.00 0.00 0.00 0.00 0.00 0.00 0.00 0.00 0.00 0.00 0.00 0.00 0.00 0.00 0.00 0.00 0.00 0.00 0.00 0.00 0.00 0.00 0.00 0.00 0.00 0.00 0.01 0.04 0.06 0.05 0.04 0.06 0.07 0.04 0.03 0.02 0.01
0.00 0.00 0.00 0.00 0.00 0.00 0.00 0.00 0.00 0.00 0.00 0.00 0.00 0.00 0.00 0.00 0.00 0.00 0.00 0.00 0.00 0.00 0.00 0.00 0.00 0.00 0.00 0.00 0.00 0.00 0.00 0.00 0.00 0.01 0.01 0.04 0.06 0.03 0.01 0.00 0.01 0.03 0.06 0.10 0.09 0.07 0.06 0.05 0.03
0.00 0.00 0.00 0.00 0.00 0.00 0.00 0.00 0.00 0.00 0.00 0.00 0.00 0.00 0.00 0.00 0.00 0.00 0.00 0.00 0.00 0.00 0.00 0.00 0.00 0.00 0.00 0.00 0.00 0.00 0.00 0.00 0.00 0.02 0.06 0.09 0.10 0.08 0.08 0.06 0.03 0.02 0.09 0.16 0.09 0.06 0.05 0.03 0.01
0.00 0.00 0.00 0.00 0.00 0.00 0.00 0.00 0.00 0.00 0.00 0.00 0.00 0.00 0.00 0.00 0.00 0.00 0.00 0.00 0.00 0.00 0.00 0.00 0.00 0.00 0.00 0.00 0.03 0.02 0.02 0.03 0.04 0.03 0.06 0.07 0.07 0.11 0.17 0.17 0.15 0.11 0.08 0.10 0.08 0.05 0.04 0.02 0.00
0.00 0.00 0.00 0.00 0.00 0.00 0.00 0.00 0.00 0.00 0.00 0.00 0.00 0.00 0.00 0.00 0.00 0.00 0.00 0.00 0.00 0.00 0.00 0.00 0.00 0.00 0.00 0.00 0.01 0.02 0.03 0.04 0.02 0.02 0.16 0.28 0.45 0.41 0.28 0.28 0.23 0.14 0.05 0.00 0.00 0.00 0.00 0.01 0.00
0.00 0.00 0.00 0.00 0.00 0.00 0.00 0.00 0.00 0.00 0.00 0.00 0.00 0.00 0.00 0.00 0.00 0.00 0.00 0.00 0.00 0.00 0.00 0.00 0.00 0.00 0.00 0.00 0.00 0.00 0.00 0.00 0.03 0.16 0.31 0.32 0.31 0.16 0.12 0.13 0.08 0.05 0.04 0.01 0.01 0.00 0.00 0.00 0.00
0.00 0.00 0.00 0.00 0.00 0.00 0.00 0.00 0.00 0.00 0.00 0.00 0.00 0.00 0.00 0.00 0.00 0.00 0.00 0.00 0.00 0.00 0.00 0.00 0.00 0.00 0.00 0.00 0.00 0.00 0.00 0.02 0.08 0.11 0.08 0.05 0.02 0.03 0.04 0.03 0.03 0.03 0.06 0.03 0.03 0.00 0.00 0.01 0.02
0.00 0.00 0.00 0.00 0.00 0.00 0.00 0.00 0.00 0.00 0.00 0.00 0.00 0.00 0.00 0.00 0.00 0.00 0.00 0.00 0.00 0.00 0.00 0.00 0.00 0.00 0.00 0.00 0.02 0.03 0.08 0.08 0.05 0.03 0.00 0.00 0.00 0.01 0.05 0.07 0.07 0.06 0.04 0.05 0.06 0.04 0.03 0.01 0.00
MSLP
1008.37 1008.73 1009.06 1009.43 1010.25 1010.29 1009.53 1008.69 1008.07 1008.18 1008.16 1007.84 1008.20 1008.85 1009.56 1010.38 1011.03 1012.53 1012.21 1012.22 1012.33 1013.25 1013.55 1013.95 1014.29 1014.68 1015.19 1015.61 1015.77 1015.87 1015.99 1016.12 1016.25 1016.45 1016.65 1016.85 1016.99 1017.16 1017.32 1017.49 1017.52 1017.55 1017.42 1017.33 1017.29 1017.29 1017.45 1017.46 1017.54
1008.86 1009.25 1009.53 1009.87 1010.26 1010.00 1009.17 1007.95 1007.99 1007.77 1007.82 1007.86 1008.39 1008.99 1009.72 1010.64 1011.14 1012.03 1012.37 1012.43 1012.25 1013.09 1013.69 1014.03 1014.35 1014.81 1015.18 1015.61 1015.84 1016.10 1016.17 1016.33 1016.47 1016.58 1016.79 1016.94 1017.09 1017.11 1017.19 1017.38 1017.52 1017.62 1017.60 1017.58 1017.47 1017.44 1017.47 1017.49 1017.68
1009.04 1009.23 1009.88 1010.07 1009.74 1009.27 1008.48 1007.70 1007.49 1007.60 1007.84 1007.94 1008.63 1009.15 1010.06 1011.02 1011.50 1011.84 1012.01 1012.40 1012.63 1013.32 1013.89 1014.15 1014.46 1014.91 1015.25 1015.73 1015.84 1016.08 1016.19 1016.36 1016.56 1016.78 1016.98 1017.10 1017.24 1017.32 1017.28 1017.32 1017.46 1017.69 1017.73 1017.74 1017.77 1017.77 1017.75 1017.68 1017.72
1008.78 1009.63 1009.79 1009.41 1008.82 1008.07 1007.54 1007.27 1007.21 1007.64 1007.86 1008.05 1008.79 1009.80 1010.44 1010.68 1011.39 1011.85 1012.36 1012.77 1013.11 1013.71 1013.99 1014.22 1014.64 1015.07 1015.33 1015.74 1015.93 1016.15 1016.35 1016.53 1016.68 1016.82 1016.96 1017.13 1017.30 1017.43 1017.43 1017.46 1017.55 1017.61 1017.78 1017.86 1017.89 1017.97 1017.97 1017.98 1017.93
1008.49 1008.87 1009.13 1008.77 1008.02 1007.18 1006.78 1006.90 1007.20 1007.50 1007.94 1008.51 1008.94 1010.57 1011.32 1011.64 1011.70 1012.28 1012.64 1012.93 1013.18 1013.81 1014.12 1014.28 1014.70 1015.09 1015.37 1015.74 1016.04 1016.25 1016.45 1016.62 1016.75 1016.91 1017.01 1017.09 1017.21 1017.38 1017.51 1017.51 1017.63 1017.67 1017.72 1017.85 1018.03 1018.02 1018.14 1018.24 1018.24
1008.53 1008.73 1008.89 1008.57 1007.58 1006.72 1006.40 1006.51 1007.01 1007.48 1008.02 1008.76 1009.60 1010.75 1011.81 1011.84 1011.96 1012.53 1012.90 1013.28 1013.45 1013.83 1014.17 1014.47 1014.86 1015.26 1015.51 1015.81 1016.07 1016.29 1016.50 1016.71 1016.85 1016.97 1017.07 1017.12 1017.13 1017.24 1017.45 1017.56 1017.58 1017.65 1017.70 1017.69 1017.81 1017.90 1018.15 1018.19 1018.36
1007.89 1008.52 1008.62 1008.10 1007.23 1006.48 1006.23 1006.45 1006.96 1007.49 1007.93 1008.73 1009.30 1011.01 1012.14 1012.33 1012.37 1012.63 1013.07 1013.53 1013.86 1013.97 1014.32 1014.65 1014.88 1015.13 1015.39 1015.69 1015.97 1016.24 1016.45 1016.66 1016.84 1016.93 1017.02 1017.09 1017.11 1017.15 1017.28 1017.50 1017.55 1017.59 1017.59 1017.59 1017.76 1017.95 1017.94 1018.04 1018.30
1007.73 1008.43 1008.27 1007.55 1006.95 1006.39 1005.93 1006.28 1006.73 1007.33 1008.02 1008.43 1008.89 1010.38 1011.69 1011.96 1012.47 1012.94 1013.37 1013.82 1014.17 1014.43 1014.52 1014.79 1014.95 1015.05 1015.33 1015.63 1015.86 1016.12 1016.32 1016.49 1016.65 1016.75 1016.86 1016.94 1017.01 1017.11 1017.14 1017.21 1017.40 1017.42 1017.44 1017.62 1017.67 1017.65 1017.82 1017.95 1018.11
1007.41 1008.13 1008.21 1007.35 1006.70 1006.07 1005.92 1006.25 1006.73 1007.15 1007.82 1008.32 1008.91 1009.65 1010.15 1011.51 1012.54 1013.24 1013.85 1014.31 1014.57 1014.77 1014.93 1014.99 1015.24 1015.44 1015.58 1015.83 1015.93 1016.11 1016.31 1016.47 1016.60 1016.71 1016.77 1016.79 1016.96 1017.08 1017.07 1017.21 1017.32 1017.25 1017.23 1017.36 1017.50 1017.49 1017.53 1017.75 1017.92
1007.82 1008.32 1008.01 1007.24 1006.43 1006.10 1005.92 1005.91 1006.67 1007.31 1008.03 1008.77 1009.37 1009.94 1010.71 1011.71 1012.65 1013.31 1013.78 1014.09 1014.48 1014.69 1014.94 1015.18 1015.30 1015.51 1015.66 1015.73 1015.95 1016.11 1016.38 1016.49 1016.64 1016.81 1016.97 1016.97 1017.10 1017.21 1017.21 1017.28 1017.23 1017.27 1017.29 1017.40 1017.35 1017.42 1017.53 1017.53 1017.65
1008.10 1008.09 1007.61 1006.65 1006.15 1005.77 1005.62 1006.24 1006.57 1007.17 1008.24 1008.49 1009.49 1010.45 1011.29 1012.11 1012.86 1013.26 1013.57 1013.40 1013.49 1014.21 1014.76 1015.02 1015.30 1015.39 1015.54 1015.59 1015.87 1016.11 1016.27 1016.49 1016.67 1016.81 1016.91 1017.03 1017.14 1017.30 1017.35 1017.41 1017.35 1017.27 1017.27 1017.38 1017.41 1017.47 1017.46 1017.61 1017.68
1008.00 1007.71 1007.23 1006.32 1006.03 1005.63 1005.42 1005.99 1006.57 1007.20 1007.57 1007.87 1009.31 1010.09 1011.23 1012.23 1012.77 1013.10 1013.41 1013.81 1013.91 1014.21 1014.53 1014.87 1015.03 1015.32 1015.48 1015.63 1015.78 1015.96 1016.16 1016.30 1016.49 1016.58 1016.76 1017.01 1017.13 1017.19 1017.31 1017.35 1017.33 1017.39 1017.29 1017.39 1017.54 1017.42 1017.51 1017.55 1017.63
1007.89 1007.79 1006.90 1005.97 1005.79 1005.33 1005.49 1006.15 1006.72 1007.66 1007.95 1008.55 1009.67 1010.61 1011.39 1012.10 1012.54 1012.81 1012.86 1013.25 1013.78 1013.99 1014.18 1014.48 1014.88 1015.15 1015.25 1015.56 1015.72 1015.84 1015.94 1016.03 1016.17 1016.35 1016.45 1016.65 1016.89 1016.98 1017.07 1017.15 1017.23 1017.20 1017.20 1017.17 1017.27 1017.16 1017.24 1017.45 1017.47
1007.90 1007.83 1006.92 1005.97 1005.56 1005.57 1006.34 1006.67 1006.90 1008.20 1008.53 1009.29 1010.07 1010.79 1011.43 1011.89 1012.11 1012.59 1012.97 1013.07 1013.25 1013.39 1013.65 1014.06 1014.39 1014.61 1014.89 1015.16 1015.20 1015.34 1015.50 1015.57 1015.82 1016.01 1016.13 1016.38 1016.52 1016.69 1016.73 1016.85 1016.89 1016.88 1016.80 1016.75 1016.87 1016.95 1017.10 1017.32 1017.51
1007.69 1007.67 1007.20 1006.56 1006.01 1006.11 1006.67 1007.41 1007.76 1008.11 1008.74 1009.41 1010.27 1010.81 1011.24 1011.53 1011.93 1011.79 1011.77 1012.11 1012.27 1012.46 1012.92 1013.28 1013.69 1013.99 1014.36 1014.51 1014.59 1014.85 1015.11 1015.35 1015.42 1015.44 1015.61 1015.77 1016.01 1016.29 1016.35 1016.41 1016.51 1016.42 1016.41 1016.49 1016.62 1016.71 1016.83 1017.06 1017.14
1007.96 1007.81 1007.77 1006.93 1006.40 1006.35 1006.88 1007.65 1008.03 1008.38 1008.74 1009.50 1010.12 1010.49 1010.84 1011.09 1011.09 1011.16 1011.25 1011.35 1011.75 1012.30 1012.35 1012.67 1013.10 1013.49 1013.91 1014.11 1014.23 1014.46 1014.62 1014.85 1015.02 1015.13 1015.15 1015.21 1015.25 1015.42 1015.89 1016.12 1016.15 1015.93 1016.13 1016.25 1016.43 1016.54 1016.71 1016.83 1017.03
1008.43 1008.55 1008.17 1007.25 1006.31 1006.46 1007.03 1007.64 1007.82 1008.43 1008.97 1009.45 1009.85 1010.13 1010.21 1010.56 1010.76 1010.60 1010.61 1010.81 1011.03 1011.23 1011.84 1012.28 1012.59 1012.90 1013.28 1013.69 1013.84 1014.09 1014.21 1014.45 1014.53 1014.71 1014.85 1014.87 1014.95 1015.03 1015.30 1015.47 1015.43 1015.59 1015.81 1016.03 1016.15 1016.35 1016.43 1016.45 1016.67
1008.67 1008.70 1008.22 1007.60 1006.75 1006.64 1007.13 1007.49 1007.82 1008.18 1008.75 1009.21 1009.57 1009.84 1009.97 1009.94 1009.56 1009.61 1009.90 1010.05 1010.44 1010.72 1011.21 1011.74 1012.21 1012.49 1012.88 1013.36 1013.63 1013.83 1014.08 1014.08 1014.05 1014.07 1014.12 1014.15 1014.23 1014.39 1014.65 1014.81 1014.91 1015.10 1015.55 1015.83 1015.96 1016.11 1016.17 1016.19 1016.26
1008.19 1008.43 1008.18 1007.36 1006.79 1006.94 1007.09 1007.46 1007.68 1008.04 1008.74 1008.87 1009.33 1009.49 1009.45 1009.33 1008.68 1009.19 1009.35 1009.80 1010.05 1010.45 1010.85 1011.13 1011.63 1011.69 1012.31 1012.95 1013.46 1013.79 1013.78 1013.73 1013.65 1013.52 1013.45 1013.57 1013.72 1013.81 1014.07 1014.01 1014.25 1014.43 1014.81 1015.02 1015.41 1015.71 1016.04 1016.17 1016.18
1008.04 1008.21 1007.93 1007.10 1006.35 1006.78 1007.13 1007.41 1007.47 1007.93 1007.67 1007.98 1008.51 1008.79 1008.71 1008.68 1008.69 1008.66 1008.94 1009.30 1009.36 1009.58 1010.00 1010.50 1010.58 1010.89 1011.30 1011.74 1011.94 1012.06 1012.13 1012.19 1012.23 1012.55 1012.78 1013.03 1013.44 1013.69 1013.89 1014.07 1014.22 1014.36 1014.45 1014.44 1014.77 1015.35 1015.74 1015.99 1016.13
1007.51 1007.63 1007.41 1007.32 1006.86 1007.01 1007.36 1007.69 1007.52 1007.32 1007.50 1007.68 1007.58 1007.73 1007.94 1008.00 1008.08 1007.97 1008.31 1008.40 1008.72 1008.93 1009.24 1009.51 1009.73 1010.32 1010.79 1011.10 1011.53 1011.88 1012.28 1012.42 1012.51 1012.54 1012.63 1012.68 1012.87 1013.17 1013.36 1013.56 1013.81 1013.93 1013.99 1013.97 1013.83 1014.11 1014.63 1015.10 1015.35
1006.86 1005.82 1006.36 1006.89 1007.34 1007.78 1007.89 1008.62 1007.56 1007.18 1007.09 1007.11 1006.79 1006.86 1006.84 1007.04 1007.26 1007.30 1007.53 1007.70 1007.89 1007.80 1008.32 1008.74 1009.11 1009.60 1010.03 1010.37 1010.86 1011.31 1011.54 1011.79 1011.61 1011.80 1011.73 1011.71 1011.74 1012.06 1012.28 1012.65 1012.79 1013.54 1013.98 1014.09 1013.78 1013.47 1013.81 1014.09 1014.11
1005.33 1005.17 1006.21 1007.04 1007.79 1008.41 1008.67 1008.81 1007.47 1007.18 1007.13 1006.45 1005.94 1005.78 1005.65 1006.03 1006.39 1006.52 1006.55 1006.48 1006.43 1007.07 1007.62 1008.02 1008.57 1009.13 1009.28 1009.55 1010.10 1010.65 1011.05 1011.00 1010.90 1011.24 1011.38 1011.28 1011.37 1011.35 1011.59 1012.02 1012.20 1012.24 1012.89 1013.69 1013.78 1013.35 1013.01 1013.04 1013.35
1004.45 1005.31 1006.53 1007.74 1008.89 1009.47 1009.00 1008.88 1007.83 1007.03 1006.05 1005.51 1005.00 1004.93 1004.89 1005.12 1005.37 1005.27 1005.23 1005.66 1005.71 1006.39 1007.09 1007.66 1008.17 1008.37 1008.71 1009.13 1009.47 1009.64 1009.82 1010.05 1010.50 1010.81 1010.59 1010.85 1011.39 1011.67 1011.75 1011.73 1011.91 1012.14 1012.31 1012.45 1012.51 1012.65 1012.47 1012.41 1012.33
1004.59 1005.98 1007.71 1009.30 1009.90 1009.63 1009.25 1008.89 1007.28 1006.24 1005.26 1004.93 1004.47 1004.22 1004.27 1004.24 1004.62 1004.67 1005.07 1005.28 1005.55 1006.05 1006.47 1006.96 1007.50 1007.64 1007.99 1008.22 1008.83 1009.09 1009.27 1009.85 1010.31 1011.01 1011.31 1011.52 1011.87 1012.02 1012.86 1012.76 1011.93 1011.21 1011.07 1011.36 1011.75 1011.77 1011.61 1011.41 1011.49
1004.54 1005.73 1007.26 1008.98 1010.15 1009.81 1009.37 1008.58 1006.84 1005.99 1005.04 1004.57 1004.23 1004.32 1004.29 1004.45 1004.61 1004.71 1004.78 1005.12 1005.50 1005.95 1006.43 1006.81 1006.89 1006.83 1007.83 1008.23 1008.61 1008.72 1009.33 1009.57 1009.71 1009.82 1009.91 1010.45 1011.08 1011.39 1011.80 1012.36 1012.30 1010.94 1010.08 1010.05 1010.59 1010.80 1010.89 1010.52 1010.59
1004.41 1005.59 1006.50 1008.54 1010.18 1010.27 1009.55 1008.22 1006.86 1005.99 1005.52 1005.34 1005.12 1005.20 1005.29 1004.95 1005.29 1005.45 1005.59 1005.53 1005.57 1005.83 1006.20 1006.66 1007.02 1007.11 1007.19 1007.25 1007.75 1007.89 1008.06 1008.17 1008.13 1008.25 1008.45 1008.52 1008.19 1007.06 1008.67 1008.87 1010.32 1010.78 1009.91 1008.94 1009.20 1009.75 1009.93 1009.88 1009.65
1003.66 1005.01 1006.71 1008.36 1009.97 1010.46 1009.86 1009.01 1008.21 1007.47 1007.04 1006.71 1006.72 1006.55 1006.37 1005.82 1005.75 1006.06 1006.15 1005.98 1006.06 1006.35 1006.71 1006.93 1007.12 1007.14 1007.18 1007.07 1006.87 1007.01 1007.39 1007.74 1008.05 1008.29 1008.86 1008.20 1007.33 1006.13 1006.26 1007.94 1008.46 1009.04 1009.00 1008.40 1008.48 1008.62 1009.01 1009.17 1009.05
1004.07 1005.03 1006.91 1008.38 1009.50 1010.06 1010.26 1009.39 1008.53 1008.28 1007.95 1007.89 1007.87 1007.33 1007.31 1006.94 1007.00 1006.94 1007.02 1007.09 1007.21 1007.33 1007.45 1007.61 1007.67 1007.68 1007.44 1007.15 1007.17 1007.10 1007.26 1007.78 1008.07 1008.23 1008.03 1007.66 1007.08 1006.98 1007.47 1007.79 1007.82 1007.88 1007.65 1007.12 1007.58 1007.68 1008.50 1008.46 1008.54
1003.43 1004.47 1005.98 1008.15 1009.67 1010.16 1009.93 1009.25 1008.56 1008.22 1008.06 1008.23 1008.16 1008.27 1008.04 1007.86 1007.88 1007.80 1007.74 1007.66 1007.66 1007.99 1008.22 1008.34 1008.41 1008.31 1008.38 1008.07 1007.87 1008.26 1008.11 1008.33 1008.33 1008.25 1007.78 1007.47 1006.98 1006.86 1006.95 1006.95 1006.97 1006.93 1006.52 1006.37 1006.97 1007.14 1007.01 1007.19 1007.35
Thickness
5816 5814 5811 5799 5767 5759 5757 5772 5791 5781 5785 5805 5807 5798 5790 5788 5782 5760 5790 5796 5796 5789 5784 5782 5780 5776 5769 5765 5764 5765 5764 5765 5764 5762 5759 5757 5756 5755 5754 5752 5749 5747 5747 5747 5745 5745 5745 5745 5745
5816 5813 5805 5787 5757 5746 5757 5793 5782 5791 5801 5809 5807 5799 5791 5779 5793 5785 5788 5794 5796 5789 5784 5783 5781 5776 5772 5768 5766 5765 5765 5764 5763 5762 5760 5758 5757 5756 5756 5754 5753 5750 5748 5747 5747 5746 5745 5746 5744
5820 5817 5790 5773 5761 5757 5767 5797 5798 5805 5811 5812 5801 5806 5796 5784 5795 5794 5799 5796 5792 5789 5785 5782 5781 5777 5773 5769 5769 5767 5767 5765 5763 5761 5759 5758 5757 5756 5756 5756 5754 5752 5751 5750 5748 5747 5746 5746 5746
5819 5805 5798 5780 5778 5790 5795 5800 5808 5802 5811 5816 5809 5792 5801 5807 5797 5799 5798 5795 5792 5788 5785 5782 5779 5776 5773 5770 5769 5768 5767 5765 5764 5763 5761 5759 5758 5757 5757 5756 5755 5754 5753 5753 5752 5749 5747 5746 5746
5822 5808 5785 5783 5786 5804 5811 5812 5812 5805 5806 5807 5810 5785 5784 5797 5803 5799 5797 5796 5794 5790 5786 5783 5780 5777 5774 5772 5770 5769 5768 5767 5766 5765 5763 5762 5761 5759 5758 5758 5756 5755 5754 5753 5753 5752 5750 5747 5747
5806 5806 5777 5773 5791 5811 5818 5822 5818 5810 5808 5806 5800 5789 5786 5801 5801 5799 5798 5794 5793 5791 5788 5784 5780 5777 5775 5773 5771 5769 5768 5768 5766 5765 5764 5763 5763 5762 5760 5760 5759 5758 5757 5756 5754 5753 5750 5750 5748
5814 5799 5788 5792 5799 5807 5816 5827 5814 5809 5808 5803 5811 5784 5788 5795 5802 5803 5799 5795 5792 5789 5787 5783 5781 5779 5777 5774 5772 5770 5769 5768 5767 5766 5765 5764 5764 5764 5763 5761 5761 5761 5761 5759 5757 5753 5751 5750 5749
5820 5808 5800 5804 5796 5801 5826 5827 5826 5817 5809 5824 5821 5789 5785 5799 5804 5802 5799 5793 5790 5788 5785 5784 5782 5781 5779 5777 5774 5772 5771 5770 5769 5768 5767 5767 5766 5765 5765 5764 5763 5762 5762 5760 5759 5756 5753 5750 5750
5836 5798 5789 5804 5805 5812 5829 5821 5831 5834 5820 5824 5823 5815 5817 5811 5805 5798 5792 5789 5787 5786 5784 5782 5781 5780 5779 5776 5775 5773 5772 5771 5770 5769 5769 5769 5769 5768 5766 5764 5764 5764 5764 5762 5761 5760 5758 5754 5753
5816 5794 5803 5822 5828 5822 5827 5828 5825 5820 5818 5812 5812 5819 5817 5810 5802 5795 5792 5790 5788 5787 5786 5784 5782 5780 5780 5778 5777 5776 5774 5772 5771 5770 5768 5768 5768 5767 5766 5765 5765 5763 5764 5763 5762 5760 5759 5759 5758
5818 5805 5820 5830 5837 5840 5834 5825 5833 5820 5808 5818 5807 5808 5809 5805 5799 5797 5796 5799 5799 5796 5791 5788 5785 5783 5782 5781 5779 5778 5777 5774 5772 5771 5769 5769 5768 5766 5765 5764 5764 5764 5763 5762 5761 5760 5761 5760 5759
5814 5828 5831 5837 5840 5840 5835 5838 5827 5830 5827 5833 5822 5819 5810 5803 5800 5799 5797 5796 5796 5795 5792 5790 5787 5785 5784 5783 5782 5780 5778 5776 5774 5773 5771 5770 5768 5767 5765 5764 5763 5762 5763 5761 5760 5760 5760 5760 5759
5819 5825 5836 5847 5848 5852 5848 5832 5829 5823 5831 5832 5823 5815 5808 5804 5803 5804 5805 5803 5799 5796 5796 5793 5790 5788 5787 5784 5783 5782 5780 5779 5778 5776 5774 5773 5770 5768 5767 5765 5764 5763 5763 5762 5760 5762 5762 5759 5759
5828 5826 5831 5844 5846 5848 5828 5829 5836 5824 5830 5822 5818 5813 5809 5806 5807 5805 5803 5803 5802 5803 5802 5799 5796 5793 5790 5789 5788 5787 5785 5784 5781 5779 5778 5776 5774 5772 5771 5769 5768 5766 5765 5764 5763 5761 5760 5759 5758
5832 5822 5828 5836 5842 5836 5834 5815 5815 5828 5827 5821 5818 5813 5812 5811 5811 5812 5815 5813 5814 5813 5811 5808 5804 5802 5799 5797 5795 5792 5790 5787 5785 5784 5783 5781 5779 5776 5774 5773 5772 5771 5769 5767 5764 5763 5761 5760 5759
5821 5819 5799 5829 5837 5839 5829 5793 5819 5829 5826 5818 5817 5818 5816 5816 5818 5820 5821 5822 5820 5815 5815 5815 5813 5809 5805 5802 5799 5796 5795 5792 5789 5787 5788 5787 5786 5784 5779 5776 5775 5775 5772 5769 5767 5765 5763 5761 5758
5807 5794 5800 5810 5840 5833 5825 5806 5826 5831 5825 5819 5819 5819 5822 5821 5820 5824 5828 5828 5826 5825 5820 5818 5816 5814 5810 5806 5803 5799 5798 5796 5794 5791 5789 5788 5787 5785 5781 5779 5778 5776 5773 5771 5770 5768 5765 5763 5760
5794 5794 5801 5801 5829 5833 5820 5817 5826 5831 5828 5823 5822 5821 5822 5824 5829 5835 5834 5836 5834 5831 5827 5823 5819 5817 5814 5810 5806 5803 5799 5798 5797 5797 5796 5794 5792 5789 5786 5783 5781 5780 5776 5772 5770 5768 5768 5766 5763
5818 5808 5804 5819 5836 5828 5821 5823 5824 5831 5828 5827 5824 5822 5824 5828 5841 5840 5840 5838 5837 5835 5832 5829 5824 5825 5819 5811 5805 5801 5799 5800 5800 5799 5799 5796 5794 5792 5789 5789 5786 5784 5781 5778 5772 5768 5764 5761 5762
5816 5806 5803 5824 5840 5832 5825 5822 5832 5831 5838 5840 5834 5831 5832 5834 5836 5841 5841 5841 5842 5841 5838 5833 5833 5832 5829 5825 5822 5820 5817 5816 5814 5808 5803 5799 5793 5789 5785 5782 5782 5781 5780 5779 5774 5766 5759 5757 5757
5814 5808 5810 5815 5835 5836 5826 5813 5825 5839 5842 5845 5846 5847 5843 5840 5839 5842 5843 5844 5846 5844 5840 5840 5839 5834 5831 5828 5823 5818 5814 5811 5807 5805 5802 5799 5795 5789 5785 5780 5776 5777 5776 5775 5776 5773 5766 5757 5757
5804 5839 5836 5831 5816 5793 5824 5779 5817 5830 5834 5843 5850 5849 5849 5848 5848 5849 5848 5848 5849 5854 5851 5848 5844 5839 5836 5834 5827 5821 5816 5810 5813 5809 5808 5806 5803 5797 5793 5786 5783 5774 5766 5765 5769 5771 5767 5763 5760
5832 5852 5838 5832 5812 5809 5808 5791 5811 5832 5828 5840 5851 5858 5862 5858 5857 5855 5857 5861 5865 5861 5856 5853 5849 5843 5841 5838 5832 5824 5817 5817 5816 5811 5805 5805 5802 5799 5793 5786 5784 5782 5774 5764 5761 5764 5767 5764 5760
5862 5844 5828 5815 5798 5779 5803 5798 5803 5819 5838 5853 5863 5866 5869 5867 5866 5870 5874 5871 5870 5866 5860 5855 5849 5846 5842 5836 5831 5827 5822 5818 5810 5805 5805 5801 5796 5791 5786 5781 5776 5773 5770 5770 5767 5764 5763 5760 5760
5844 5822 5785 5775 5772 5775 5794 5797 5813 5845 5857 5861 5869 5875 5875 5878 5873 5873 5869 5868 5867 5863 5860 5855 5849 5846 5843 5840 5833 5828 5823 5815 5806 5796 5792 5789 5784 5780 5767 5762 5765 5770 5772 5769 5764 5762 5762 5763 5760
5832 5823 5786 5770 5763 5778 5802 5792 5822 5849 5861 5870 5881 5876 5875 5875 5874 5872 5873 5869 5866 5864 5858 5853 5851 5850 5840 5834 5827 5825 5817 5810 5805 5801 5798 5789 5781 5775 5767 5752 5752 5762 5769 5769 5765 5761 5758 5761 5757
5836 5819 5831 5781 5776 5773 5783 5808 5839 5849 5855 5859 5862 5862 5859 5867 5867 5864 5863 5864 5864 5861 5856 5850 5845 5842 5839 5835 5827 5822 5817 5812 5809 5805 5800 5795 5797 5798 5781 5767 5748 5751 5757 5771 5766 5761 5755 5753 5754
5850 5842 5807 5792 5771 5772 5775 5788 5794 5818 5830 5841 5840 5844 5851 5860 5861 5857 5856 5856 5856 5852 5847 5844 5839 5836 5833 5831 5827 5822 5815 5807 5799 5791 5783 5787 5790 5798 5789 5769 5763 5752 5744 5752 5760 5759 5750 5746 5744
5833 5823 5803 5796 5781 5765 5759 5779 5811 5814 5822 5830 5830 5839 5841 5845 5846 5847 5846 5845 5842 5839 5835 5831 5827 5824 5822 5821 5816 5811 5805 5796 5788 5783 5780 5780 5782 5777 5770 5764 5758 5754 5748 5755 5742 5747 5740 5737 5736
5854 5842 5817 5790 5787 5765 5769 5781 5821 5824 5828 5829 5829 5830 5834 5838 5837 5837 5837 5836 5832 5825 5821 5817 5814 5810 5804 5803 5799 5788 5785 5779 5774 5769 5769 5770 5770 5767 5763 5761 5757 5753 5751 5748 5735 5734 5739 5734 5732